Other Public Products
Issued by NWS Grand Forks, ND

Home | Current Version | Previous Version | Text Only | Print | Product List | Glossary Off
Versions: 1 2 3 4 5 6 7 8 9 10 11 12 13 14 15 16 17 18 19 20 21 22 23 24 25 26 27 28 29 30 31 32 33 34 35 36 37 38 39 40 41 42 43 44 45 46 47 48 49 50

000
FPUS83 KFGF 291631
OPUFGF
PRAIRIE TO PINES WEATHER ROUNDUP
NATIONAL WEATHER SERVICE EASTERN NORTH DAKOTA/GRAND FORKS ND
1100 AM CDT TUE JUL 29 2014

 **SATELLITE DATA USED TO AUGMENT SKY COVER AT AUTOMATED STATIONS**
 *****  WEATHER ACROSS EASTERN NORTH DAKOTA  *****

CITY           SKY/WX    TMP DP  RH WIND       PRES   REMARKS
GRAND FORKS    MOSUNNY   72  56  57 NW5       30.17S
GRAND FORKS AF SUNNY     72  58  60 NW6       30.18S
GRAND CITY NWS   N/A     73 N/A N/A N6          N/A
BUXTON           N/A     75  59  58 NW8         N/A
DEVILS LAKE    SUNNY     70  54  56 NW5       30.19S
FARGO          SUNNY     73  56  54 NW5       30.18S
WAHPETON ARPT  SUNNY     70  52  52 W6        30.19F
$$

 *****  WEATHER ACROSS CENTRAL AND WESTERN NORTH DAKOTA  *****

CITY           SKY/WX    TMP DP  RH WIND       PRES   REMARKS
JAMESTOWN      SUNNY     71  51  49 MISG      30.21S
BISMARCK       MOSUNNY   71  54  54 NW3       30.24S
MINOT          SUNNY     74  55  51 CALM      30.20S
MINOT AFB      SUNNY     73  60  61 SE6       30.20S
GARRISON         N/A     72  59  63 SW5       30.22S
WILLISTON      SUNNY     73  55  53 CALM      30.21S
DICKINSON      MOSUNNY   75  55  49 S8        30.22F
HETTINGER      SUNNY     74  54  49 SW6       30.25F
$$

 *****  OTHER OBSERVATIONS NORTHEAST NORTH DAKOTA  *****

CITY           SKY/WX    TMP DP  RH WIND       PRES   REMARKS
WALHALLA       FAIR      72  55  56 NE8         N/A
LANGDON        FAIR      73  54  49 N6        30.20S
CAVALIER       FAIR      72  55  56 N6        30.17S
GRAFTON        FAIR      73  55  53 NW5       30.17S
CANDO          FAIR      72  55  56 NW7       30.21S
FORT TOTTEN      N/A     71  58  64 N3        29.95S
ROLLA            N/A     72  54  53 N6        30.22F
RUGBY          FAIR      70  59  68 W3        30.20F
 ***** THE ABOVE OBSERVATIONS ARE NON NWS ARE NOT QUALITY
        CONTROLLED AND MAY MIS-REPORT RAIN FOR SNOW...
$$

 *****  OTHER OBSERVATIONS SOUTHEAST NORTH DAKOTA *****

CITY           SKY/WX    TMP DP  RH WIND       PRES   REMARKS
COOPERSTOWN    NOT AVBL
VALLEY CITY    FAIR      72  50  46 N6        30.21S
OAKES          NOT AVBL
GWINNER        MOSUNNY   72  54  53 NW7       30.22S
SHEYENNE NWR     N/A     73  54  51 NW6       29.95
BUFFALO        NOT AVBL
WYNDMERE       NOT AVBL
 ***** THE ABOVE OBSERVATIONS ARE NON NWS ARE NOT QUALITY
       CONTROLLED AND MAY MIS-REPORT RAIN FOR SNOW...
$$

  *****  WEATHER ACROSS NORTHERN MINNESOTA  *****

CITY           SKY/WX    TMP DP  RH WIND       PRES   REMARKS
FLAG ISLAND    SUNNY     70  55  60 NW15      30.09S
WARROAD        SUNNY     72  57  60 NW9       30.13F
ROSEAU         SUNNY     73  61  64 W7        30.14S
HALLOCK        SUNNY     72  55  56 NW7       30.16S
THF RVR FALLS  SUNNY     70  55  60 NW8       30.17S
HALSTAD          N/A     73  54  50 N6          N/A
FOSSTON        SUNNY     70  55  60 NW9       30.18R
BAUDETTE       SUNNY     72  55  55 NW13      30.12F
WASKISH        SUNNY     73  55  53 W5        30.12F
CROOKSTON      SUNNY     70  57  64 N8        30.18S
$$
  *****  WEATHER ACROSS CENTRAL AND WEST MINNESOTA  *****

CITY           SKY/WX    TMP DP  RH WIND       PRES   REMARKS
BEMIDJI        SUNNY     70  55  59 NW10G16   30.15S
PARK RAPIDS    SUNNY     72  54  53 NW14      30.16F
WADENA         SUNNY     72  55  56 NW8       30.17S
DETROIT LAKES  SUNNY     70  55  60 NW14      30.20S
MOORHEAD       SUNNY     72  59  64 NW5       30.18F
FERGUS FALLS   SUNNY     70  52  52 NW8       30.18F
ELBOW LAKE     FAIR      69  57  65 NW6       30.19S
MORRIS MN      SUNNY     72  57  60 NW6       30.19S
STAPLES        SUNNY     72  54  53 NW10      30.16S
WHEATON        SUNNY     70  57  64 W5        30.22S
$$
  *****  WEATHER ELSEWHERE ACROSS MINNESOTA  *****

CITY           SKY/WX    TMP DP  RH WIND       PRES   REMARKS
DULUTH         MOSUNNY   74  56  53 NW9       30.06F
INTRNTL FALLS  SUNNY     72  57  59 NW13      30.07F
ELY            MOSUNNY   70  57  64 W7        30.05F
CLOQUET        MOSUNNY   72  55  56 NW9       30.08S
BRAINERD       SUNNY     71  56  58 NW9       30.14F
HIBBING        PTSUNNY   69  56  62 NW8       30.08F
ALEXANDRIA     MOSUNNY   71  55  56 N9        30.19S
SAINT CLOUD    SUNNY     75  58  55 N5        30.14S
MINNEAPOLIS    SUNNY     75  56  51 NW8       30.12F
$$

  *****  WEATHER ACROSS SOUTH DAKOTA  *****

CITY           SKY/WX    TMP DP  RH WIND       PRES   REMARKS
SIOUX FALLS    MOSUNNY   71  53  52 N6        30.23S
BROOKINGS      NOT AVBL
WATERTOWN      SUNNY     67  54  63 NW6       30.22F
HURON          SUNNY     71  52  50 SW3       30.22F
SISSETON         N/A     72  56  57 MISG      30.20S
ABERDEEN       SUNNY     71  52  50 VRB3      30.22F
MITCHELL       MOSUNNY   72  55  55 N5        30.23F
PIERRE         MOSUNNY   75  53  46 N5        30.22S
MOBRIDGE         N/A     71  53  52 NW3       30.21F
RAPID CITY     CLOUDY    66  54  65 SE5       30.26S
$$

  *****  SOME WEATHER IN NEARBY STATES *****

CITY           SKY/WX    TMP DP  RH WIND       PRES   REMARKS
GLASGOW MT     SUNNY     83  49  30 E9        30.20F
GREAT FALLS MT SUNNY     76  48  37 SW6       30.21S
CHEYENNE WY    PTSUNNY   73  58  59 E9        30.32S
SCOTTSBLUFF NE CLOUDY    64  58  80 E8        30.28S
OMAHA NE       PTSUNNY   74  57  55 N9        30.21F
DES MOINES IA  MOSUNNY   76  56  49 NW9       30.17S
DAVENPORT IA   SUNNY     73  59  61 NW8       30.12S
CHICAGO IL     MOSUNNY   74  53  48 NW12      30.04S
EAU CLAIRE WI  SUNNY     73  57  57 W9        30.08F
LA CROSSE WI   SUNNY     73  58  59 W7        30.09F
$$

  *****  SOME NATIONAL WEATHER *****

CITY           SKY/WX    TMP DP  RH WIND       PRES   REMARKS
LA GUARDIA NY  MOSUNNY   73  51  46 NW12      29.86S
RALEIGH NC     MOSUNNY   78  58  49 VRB5      29.97S
ATLANTA GA     PTSUNNY   78  59  51 VRB6      30.03S
NEW ORLEANS LA CLOUDY    85  69  58 NE9       30.08R
OKLAHOMA CITY  PTSUNNY   83  60  45 S8        30.18S
ALBUQUERQUE NM PTSUNNY   70  60  70 SW3       30.33F
SALT LAKE CITY PTSUNNY   70  64  81 N8        30.20S
LOS ANGELES CA MOSUNNY   71  64  78 W6        30.05S
BOISE ID       PTSUNNY   83  50  31 NE5       30.12S
SEATTLE WA     SUNNY     68  56  65 CALM      30.16R
$$

*** WEATHER ACROSS MANITOBA...SASKATCHEWAN AND ONTARIO ***
                ***ONTARIO***

CITY           SKY/WX    TMP DP  RH WIND       PRES   REMARKS
GERALDTON      PTSUNNY   61  50  67 N16       29.98S
THUNDER BAY    CLOUDY    66  59  77 SW5       30.00S
SIOUX LOOKOUT  PTSUNNY   66  57  72 N7        30.05S
TORONTO        PTSUNNY   70  46  43 NW9       29.94S
BIG TROUT LK   SUNNY     61  46  59 CALM      30.11S
PICKLE LAKE    MOSUNNY   63  48  59 NE8G18    30.06S
DRYDEN         PTSUNNY   64  57  77 W3        30.05F
KENORA         CLOUDY    68  57  68 NW8       30.11S
$$
                *** MANITOBA***

CITY           SKY/WX    TMP DP  RH WIND       PRES   REMARKS
BRANDON        MOSUNNY   73  52  46 N2        30.20F
DAUPHIN        SUNNY     72  57  60 N6        30.18F
ISLAND LAKE    MOSUNNY   70  59  68 W5        30.09S
PILOT MOUND      N/A     68  55  64 NW6         N/A
THE PAS        SUNNY     75  59  57 W3        30.15F
THOMPSON       MOSUNNY   72  61  68 E6        30.11S
WINNIPEG       MOSUNNY   73  57  56 N8        30.16S
LYNN LAKE      SUNNY     79  54  41 NE7       30.12
CHURCHILL      SUNNY     59  50  72 SE6       30.16F
GILLAM         PTSUNNY   57  55  94 NE3       30.15
$$
                ***SASKATCHEWAN***

CITY           SKY/WX    TMP DP  RH WIND       PRES   REMARKS
ESTEVAN        MOSUNNY   72  59  64 NE5       30.22S
KINDERSLEY     MOSUNNY   73  61  64 SE10      30.21S
LLOYDMINSTER   MOSUNNY   75  59  57 S12       30.20S
PRINCE ALBERT  MOSUNNY   73  63  68 CALM      30.21S
REGINA         MOSUNNY   73  61  64 NW7       30.23S


USA.gov is the U.S. government's official web portal to all federal, state and local government web resources and services.